Overview Statistics Trail Chart Weather Telemetry Raw packets
 

This is the latest recevied weather packets stored in our database for station/object KE9DBJ-13. If no packets are shown the sender has not sent any weather packets the latest 10 day(s).

<< 1 2 3 4 >>
Time Temp. Humidity Pressure Rain* Wind** Luminosity Snow
1788577202 22.78° C 91% 1013.4 hPa 0 mm - - -
1788576602 22.78° C 91% 1013.4 hPa 0 mm - - -
1788576002 22.78° C 90% 1013.4 hPa 0 mm - - -
1788575402 23.33° C 90% 1013.4 hPa 0 mm - - -
1788574802 23.33° C 89% 1013.4 hPa 0 mm - - -
1788574202 23.33° C 89% 1013.4 hPa 0 mm - - -
1788573602 23.33° C 89% 1013.3 hPa 0 mm - - -
1788573003 23.33° C 88% 1013.3 hPa 0 mm - - -
1788572403 23.89° C 88% 1013.4 hPa 0 mm - - -
1788571803 23.89° C 88% 1013.2 hPa 0 mm - - -
1788571203 23.89° C 87% 1013.1 hPa 0 mm - - -
1788570634 24.44° C 87% 1013 hPa 0 mm - - -
1788570003 24.44° C 86% 1013 hPa 0 mm - - -
1788569403 25° C 84% 1012.8 hPa 0 mm - - -
1788568803 25° C 84% 1012.7 hPa 0 mm - - -
1788568202 25° C 83% 1012.6 hPa 0 mm - - -
1788567602 25.56° C 82% 1012.6 hPa 0 mm - - -
1788567002 25.56° C 82% 1012.5 hPa 0 mm - - -
1788566402 26.11° C 80% 1012.2 hPa 0 mm - - -
1788565802 26.67° C 80% 1012.2 hPa 0 mm - - -
1788565202 27.78° C 78% 1011.9 hPa 0 mm - - -
1788564602 27.78° C 73% 1012.1 hPa 0 mm - - -
1788564002 28.33° C 70% 1012.1 hPa 0 mm - - -
1788563403 28.89° C 69% 1012.2 hPa 0 mm - - -
1788562803 29.44° C 67% 1012 hPa 0 mm - - -

* Rain latest hour (hover to see other rain measurements)
** Current wind speed in m/s (hover to see current wind gust speed)